Time,TemperatureF,DewpointF,PressureIn,WindDirection,WindDirectionDegrees,WindSpeedMPH,WindSpeedGustMPH,Humidity,HourlyPrecipIn,Conditions,Clouds,dailyrainin,SoftwareType,DateUTC
2013-08-10 00:00:00,72.3,72.3,29.81,WSW,239,2.5,4.8,100,0.00,,SCT220,0.00,VWS V14.01,2013-08-10 04:00:00,
2013-08-10 00:02:00,72.3,72.3,29.81,WSW,239,2.5,2.5,100,0.00,,SCT220,0.00,VWS V14.01,2013-08-10 04:02:00,
2013-08-10 00:04:00,72.3,72.3,29.81,WSW,239,2.5,2.5,100,0.00,,SCT220,0.00,VWS V14.01,2013-08-10 04:04:00,
2013-08-10 00:06:00,72.4,72.4,29.81,WSW,239,2.5,2.5,100,0.00,,SCT220,0.00,VWS V14.01,2013-08-10 04:06:00,
2013-08-10 00:08:00,72.4,72.4,29.81,WSW,239,2.5,2.5,100,0.00,,SCT220,0.00,VWS V14.01,2013-08-10 04:08:00,
2013-08-10 00:14:00,72.5,72.5,29.81,SSW,204,2.5,2.5,100,0.00,,SCT220,0.00,VWS V14.01,2013-08-10 04:14:00,
2013-08-10 00:18:00,72.2,72.2,29.81,SSW,204,2.5,2.5,100,0.00,,SCT220,0.00,VWS V14.01,2013-08-10 04:18:00,
2013-08-10 00:24:00,72.4,72.4,29.80,SSW,204,2.5,2.5,100,0.00,,SCT220,0.00,VWS V14.01,2013-08-10 04:24:00,
2013-08-10 00:30:00,72.2,72.2,29.80,SSW,204,2.5,2.5,100,0.00,,SCT220,0.00,VWS V14.01,2013-08-10 04:30:00,
2013-08-10 00:36:00,72.2,72.2,29.80,SW,226,2.5,2.5,100,0.00,,SCT220,0.00,VWS V14.01,2013-08-10 04:36:00,
2013-08-10 00:42:00,72.1,72.1,29.80,SW,226,2.5,2.5,100,0.00,,SCT220,0.00,VWS V14.01,2013-08-10 04:42:00,
2013-08-10 00:48:00,72.2,72.2,29.80,SW,226,2.5,2.5,100,0.00,,SCT220,0.00,VWS V14.01,2013-08-10 04:48:00,
2013-08-10 00:54:00,72.3,72.3,29.81,SW,226,2.5,2.5,100,0.00,,SCT220,0.00,VWS V14.01,2013-08-10 04:54:00,
2013-08-10 01:00:00,72.2,72.2,29.81,SW,226,2.5,2.5,100,0.00,,OVC070,0.00,VWS V14.01,2013-08-10 05:00:00,
2013-08-10 01:06:00,72.4,72.4,29.80,SW,226,2.5,2.5,100,0.00,,OVC070,0.00,VWS V14.01,2013-08-10 05:06:00,
2013-08-10 01:12:00,72.3,72.3,29.80,WSW,243,2.5,4.2,100,0.00,,OVC070,0.00,VWS V14.01,2013-08-10 05:12:00,
2013-08-10 01:18:00,72.4,72.4,29.80,WSW,243,2.5,2.5,100,0.00,,OVC070,0.00,VWS V14.01,2013-08-10 05:18:00,
2013-08-10 01:24:00,72.4,72.4,29.81,WSW,243,2.5,2.5,100,0.00,,OVC070,0.00,VWS V14.01,2013-08-10 05:24:00,
2013-08-10 01:30:00,72.4,72.4,29.80,WSW,243,2.5,2.5,100,0.00,,OVC070,0.00,VWS V14.01,2013-08-10 05:30:00,
2013-08-10 01:36:00,72.4,72.4,29.81,WSW,243,2.5,2.5,100,0.00,,OVC070,0.00,VWS V14.01,2013-08-10 05:36:00,
2013-08-10 01:42:00,72.3,72.3,29.80,SW,222,2.5,2.5,100,0.00,,OVC070,0.00,VWS V14.01,2013-08-10 05:42:00,
2013-08-10 01:48:00,72.4,72.4,29.80,WSW,253,2.5,2.5,100,0.00,,OVC070,0.00,VWS V14.01,2013-08-10 05:48:00,
2013-08-10 01:54:00,72.4,72.4,29.81,WSW,253,2.5,2.5,100,0.00,,OVC070,0.00,VWS V14.01,2013-08-10 05:54:00,
2013-08-10 02:00:00,72.3,72.3,29.80,WSW,253,2.5,2.5,100,0.00,,SCT060,0.00,VWS V14.01,2013-08-10 06:00:00,
2013-08-10 02:06:00,72.4,72.4,29.80,WSW,253,2.5,2.5,100,0.00,,SCT060,0.00,VWS V14.01,2013-08-10 06:06:00,
2013-08-10 02:12:00,72.3,72.3,29.80,WSW,240,2.5,2.5,100,0.00,,SCT060,0.00,VWS V14.01,2013-08-10 06:12:00,
2013-08-10 02:18:00,72.3,72.3,29.80,WSW,240,2.5,2.5,100,0.00,,SCT060,0.00,VWS V14.01,2013-08-10 06:18:00,
2013-08-10 02:24:00,72.1,72.1,29.81,WSW,240,2.5,2.5,100,0.00,,SCT060,0.00,VWS V14.01,2013-08-10 06:24:00,
2013-08-10 02:30:00,72.0,72.0,29.81,WSW,240,2.5,2.5,100,0.00,,SCT060,0.00,VWS V14.01,2013-08-10 06:30:00,
2013-08-10 02:36:00,72.0,72.0,29.81,SSW,198,2.5,2.5,100,0.00,,SCT060,0.00,VWS V14.01,2013-08-10 06:36:00,
2013-08-10 02:42:00,71.7,71.7,29.81,SW,221,4.4,5.0,100,0.00,,SCT060,0.00,VWS V14.01,2013-08-10 06:42:00,
2013-08-10 02:48:00,71.7,71.7,29.81,WSW,239,2.5,7.0,100,0.00,,SCT060,0.00,VWS V14.01,2013-08-10 06:48:00,
2013-08-10 02:54:00,71.6,71.6,29.81,SW,215,2.5,3.7,100,0.00,,SCT060,0.00,VWS V14.01,2013-08-10 06:54:00,
2013-08-10 03:00:00,71.5,71.5,29.81,SSW,200,2.5,4.0,100,0.00,,CLR,0.00,VWS V14.01,2013-08-10 07:00:00,
2013-08-10 03:06:00,71.5,71.5,29.81,SSW,200,2.5,2.5,100,0.00,,CLR,0.00,VWS V14.01,2013-08-10 07:06:00,
2013-08-10 03:12:00,71.4,71.4,29.81,SSW,200,2.5,3.7,100,0.00,,CLR,0.00,VWS V14.01,2013-08-10 07:12:00,
2013-08-10 03:18:00,71.3,71.3,29.82,SSW,200,2.5,2.5,100,0.00,,CLR,0.00,VWS V14.01,2013-08-10 07:18:00,
2013-08-10 03:24:00,71.1,71.1,29.82,SSW,212,2.5,2.5,100,0.00,,CLR,0.00,VWS V14.01,2013-08-10 07:24:00,
2013-08-10 03:30:00,71.0,71.0,29.82,SSW,212,2.5,2.5,100,0.00,,CLR,0.00,VWS V14.01,2013-08-10 07:30:00,
2013-08-10 03:36:00,71.0,71.0,29.82,SW,229,2.5,2.5,100,0.00,,CLR,0.00,VWS V14.01,2013-08-10 07:36:00,
2013-08-10 03:42:00,71.0,71.0,29.82,SSW,208,2.5,2.5,100,0.00,,CLR,0.00,VWS V14.01,2013-08-10 07:42:00,
2013-08-10 03:48:00,70.9,70.9,29.82,SSW,208,2.5,2.5,100,0.00,,CLR,0.00,VWS V14.01,2013-08-10 07:48:00,
2013-08-10 03:54:00,70.8,70.8,29.82,SSW,208,2.5,2.5,100,0.00,,CLR,0.00,VWS V14.01,2013-08-10 07:54:00,
2013-08-10 04:00:00,70.7,70.7,29.82,SW,229,2.5,2.5,100,0.00,,FEW220,0.00,VWS V14.01,2013-08-10 08:00:00,
2013-08-10 04:06:00,70.7,70.7,29.82,WSW,245,2.5,4.4,100,0.00,,FEW220,0.00,VWS V14.01,2013-08-10 08:06:00,
2013-08-10 04:12:00,70.6,70.6,29.82,WSW,245,2.5,2.5,100,0.00,,FEW220,0.00,VWS V14.01,2013-08-10 08:12:00,
2013-08-10 04:18:00,70.5,70.5,29.82,WSW,245,2.5,2.5,100,0.00,,FEW220,0.00,VWS V14.01,2013-08-10 08:18:00,
2013-08-10 04:24:00,70.5,70.5,29.82,WSW,245,2.5,2.5,100,0.00,,FEW220,0.00,VWS V14.01,2013-08-10 08:24:00,
2013-08-10 04:30:00,70.4,70.4,29.83,WSW,245,2.5,2.5,100,0.00,,FEW220,0.00,VWS V14.01,2013-08-10 08:30:00,
2013-08-10 04:36:00,70.3,70.3,29.83,WSW,245,2.5,2.5,100,0.00,,FEW220,0.00,VWS V14.01,2013-08-10 08:36:00,
2013-08-10 04:42:00,70.2,70.2,29.83,WSW,245,2.5,2.5,100,0.00,,FEW220,0.00,VWS V14.01,2013-08-10 08:42:00,
2013-08-10 04:48:00,70.2,70.2,29.83,SW,232,2.5,2.5,100,0.00,,FEW220,0.00,VWS V14.01,2013-08-10 08:48:00,
2013-08-10 04:54:00,70.1,70.1,29.83,West,281,2.5,3.1,100,0.00,,FEW220,0.00,VWS V14.01,2013-08-10 08:54:00,
2013-08-10 05:00:00,69.8,69.8,29.83,West,281,2.5,2.5,100,0.00,,SCT220,0.00,VWS V14.01,2013-08-10 09:00:00,
2013-08-10 05:06:00,69.6,69.6,29.83,West,281,2.5,2.5,100,0.00,,SCT220,0.00,VWS V14.01,2013-08-10 09:06:00,
2013-08-10 05:12:00,69.6,69.6,29.83,West,281,2.5,2.5,100,0.00,,SCT220,0.00,VWS V14.01,2013-08-10 09:12:00,
2013-08-10 05:18:00,69.5,69.5,29.84,SW,236,2.5,2.5,100,0.00,,SCT220,0.00,VWS V14.01,2013-08-10 09:18:00,
2013-08-10 05:24:00,69.3,69.3,29.84,SW,236,2.5,2.5,100,0.00,,SCT220,0.00,VWS V14.01,2013-08-10 09:24:00,
2013-08-10 05:30:00,69.2,69.2,29.84,SW,236,2.5,2.5,100,0.00,,SCT220,0.00,VWS V14.01,2013-08-10 09:30:00,
2013-08-10 05:36:00,68.9,68.9,29.84,SW,233,2.5,4.4,100,0.00,,SCT220,0.00,VWS V14.01,2013-08-10 09:36:00,
2013-08-10 05:42:00,68.7,68.7,29.85,SW,233,2.5,2.5,100,0.00,,SCT220,0.00,VWS V14.01,2013-08-10 09:42:00,
2013-08-10 05:48:00,68.6,68.6,29.85,SSW,201,2.5,3.4,100,0.00,,SCT220,0.00,VWS V14.01,2013-08-10 09:48:00,
2013-08-10 05:54:00,68.4,68.4,29.85,SSW,201,2.5,2.5,100,0.00,,SCT220,0.00,VWS V14.01,2013-08-10 09:54:00,
2013-08-10 06:00:00,68.4,68.4,29.86,NNE,31,2.5,4.3,100,0.00,,SCT220,0.00,VWS V14.01,2013-08-10 10:00:00,
2013-08-10 06:06:00,68.2,68.2,29.86,NNE,31,2.5,2.5,100,0.00,,SCT220,0.00,VWS V14.01,2013-08-10 10:06:00,
2013-08-10 06:12:00,68.2,68.2,29.86,NNE,31,2.5,2.5,100,0.00,,SCT220,0.00,VWS V14.01,2013-08-10 10:12:00,
2013-08-10 06:18:00,68.3,68.3,29.86,NNE,31,2.5,2.5,100,0.00,,SCT220,0.00,VWS V14.01,2013-08-10 10:18:00,
2013-08-10 06:24:00,68.1,68.1,29.86,NNE,31,2.5,2.5,100,0.00,,SCT220,0.00,VWS V14.01,2013-08-10 10:24:00,
2013-08-10 06:30:00,67.9,67.9,29.86,WSW,239,2.5,2.5,100,0.00,,SCT220,0.00,VWS V14.01,2013-08-10 10:30:00,
2013-08-10 06:36:00,67.9,67.9,29.87,South,191,3.2,4.7,100,0.00,,SCT220,0.00,VWS V14.01,2013-08-10 10:36:00,
2013-08-10 06:42:00,68.2,68.2,29.87,SW,236,4.1,4.1,100,0.00,,SCT220,0.00,VWS V14.01,2013-08-10 10:42:00,
2013-08-10 06:48:00,68.5,68.5,29.87,North,359,2.5,2.5,100,0.00,,SCT220,0.00,VWS V14.01,2013-08-10 10:48:00,
2013-08-10 06:54:00,68.7,68.7,29.87,South,188,2.5,7.2,100,0.00,,SCT220,0.00,VWS V14.01,2013-08-10 10:54:00,
2013-08-10 07:00:00,68.8,68.8,29.87,West,280,7.3,7.6,100,0.00,,SCT220,0.00,VWS V14.01,2013-08-10 11:00:00,
2013-08-10 07:06:00,68.9,68.9,29.87,South,181,2.5,5.3,100,0.00,,SCT220,0.00,VWS V14.01,2013-08-10 11:06:00,
2013-08-10 07:12:00,68.7,68.7,29.87,SE,129,2.5,2.5,100,0.00,,SCT220,0.00,VWS V14.01,2013-08-10 11:12:00,
2013-08-10 07:18:00,68.7,68.7,29.87,WSW,242,2.5,7.0,100,0.00,,SCT220,0.00,VWS V14.01,2013-08-10 11:18:00,
2013-08-10 07:24:00,68.9,68.9,29.88,WSW,242,2.5,2.5,100,0.00,,SCT220,0.00,VWS V14.01,2013-08-10 11:24:00,
2013-08-10 07:30:00,68.7,68.7,29.88,WNW,294,2.8,5.5,100,0.00,,SCT220,0.00,VWS V14.01,2013-08-10 11:30:00,
2013-08-10 07:36:00,68.6,68.6,29.87,SW,218,2.5,6.6,100,0.00,,SCT220,0.00,VWS V14.01,2013-08-10 11:36:00,
2013-08-10 07:42:00,68.8,68.8,29.88,SSW,201,2.5,4.7,100,0.00,,SCT220,0.00,VWS V14.01,2013-08-10 11:42:00,
2013-08-10 07:48:00,68.9,68.9,29.88,South,172,2.5,4.1,100,0.00,,SCT220,0.00,VWS V14.01,2013-08-10 11:48:00,
2013-08-10 07:54:00,69.1,69.1,29.89,SW,232,2.5,4.0,100,0.00,,SCT220,0.00,VWS V14.01,2013-08-10 11:54:00,
2013-08-10 08:00:00,69.5,69.5,29.89,SSW,202,5.3,6.5,100,0.00,,SCT220,0.00,VWS V14.01,2013-08-10 12:00:00,
2013-08-10 08:06:00,70.2,70.2,29.89,SW,235,5.0,5.4,100,0.00,,SCT220,0.00,VWS V14.01,2013-08-10 12:06:00,
2013-08-10 08:12:00,70.6,70.6,29.89,NW,304,3.4,5.8,100,0.00,,SCT220,0.00,VWS V14.01,2013-08-10 12:12:00,
2013-08-10 08:18:00,70.5,70.5,29.89,West,269,4.6,5.0,100,0.00,,SCT220,0.00,VWS V14.01,2013-08-10 12:18:00,
2013-08-10 08:24:00,70.8,70.8,29.89,WNW,297,2.5,7.1,100,0.00,,SCT220,0.00,VWS V14.01,2013-08-10 12:24:00,
2013-08-10 08:30:00,71.7,71.0,29.89,WSW,243,3.2,7.5,98,0.00,,SCT220,0.00,VWS V14.01,2013-08-10 12:30:00,
2013-08-10 08:36:00,71.9,71.2,29.89,SE,127,3.6,7.3,98,0.00,,SCT220,0.00,VWS V14.01,2013-08-10 12:36:00,
2013-08-10 08:42:00,72.1,71.8,29.89,NNE,17,6.7,7.5,99,0.00,,SCT220,0.00,VWS V14.01,2013-08-10 12:42:00,
2013-08-10 08:48:00,73.7,72.5,29.89,WSW,255,2.5,4.3,96,0.00,,SCT220,0.00,VWS V14.01,2013-08-10 12:48:00,
2013-08-10 08:54:00,74.1,72.7,29.90,West,263,3.2,5.9,95,0.00,,SCT220,0.00,VWS V14.01,2013-08-10 12:54:00,
2013-08-10 09:00:00,74.0,72.8,29.90,East,82,3.3,4.4,96,0.00,,SCT220,0.00,VWS V14.01,2013-08-10 13:00:00,
2013-08-10 09:06:00,73.8,72.3,29.90,NNW,335,4.9,5.2,95,0.00,,SCT220,0.00,VWS V14.01,2013-08-10 13:06:00,
2013-08-10 09:08:00,74.5,73.0,29.90,WNW,294,2.5,7.5,95,0.00,,SCT220,0.00,VWS V14.01,2013-08-10 13:08:00,
2013-08-10 09:14:00,74.9,71.6,29.90,NW,305,2.5,8.2,89,0.00,,SCT220,0.00,VWS V14.01,2013-08-10 13:14:00,
2013-08-10 09:20:00,75.0,72.8,29.90,NW,305,2.5,5.7,93,0.00,,SCT220,0.00,VWS V14.01,2013-08-10 13:20:00,
2013-08-10 09:26:00,76.3,69.6,29.90,WSW,238,3.5,7.5,80,0.00,,SCT220,0.00,VWS V14.01,2013-08-10 13:26:00,
2013-08-10 09:32:00,76.2,72.3,29.90,NW,318,2.5,4.9,88,0.00,,SCT220,0.00,VWS V14.01,2013-08-10 13:32:00,
2013-08-10 09:38:00,76.0,71.7,29.90,West,259,4.1,6.1,86,0.00,,SCT220,0.00,VWS V14.01,2013-08-10 13:38:00,
2013-08-10 09:44:00,76.4,69.0,29.90,WSW,257,3.7,8.4,78,0.00,,SCT220,0.00,VWS V14.01,2013-08-10 13:44:00,
2013-08-10 09:50:00,75.9,70.4,29.90,WSW,253,2.5,8.8,83,0.00,,SCT220,0.00,VWS V14.01,2013-08-10 13:50:00,
2013-08-10 09:56:00,76.5,68.9,29.90,East,90,3.2,5.5,77,0.00,,SCT220,0.00,VWS V14.01,2013-08-10 13:56:00,
2013-08-10 10:02:00,77.0,70.5,29.90,NE,45,3.6,6.7,80,0.00,,SCT250,0.00,VWS V14.01,2013-08-10 14:02:00,
2013-08-10 10:08:00,79.1,72.1,29.90,South,191,2.5,4.2,79,0.00,,SCT250,0.00,VWS V14.01,2013-08-10 14:08:00,
2013-08-10 10:14:00,78.0,68.7,29.90,West,269,3.1,9.6,73,0.00,,SCT250,0.00,VWS V14.01,2013-08-10 14:14:00,
2013-08-10 10:20:00,79.0,65.4,29.90,SSW,201,2.8,5.1,63,0.00,,SCT250,0.00,VWS V14.01,2013-08-10 14:20:00,
2013-08-10 10:26:00,79.1,68.8,29.91,South,191,2.5,4.4,71,0.00,,SCT250,0.00,VWS V14.01,2013-08-10 14:26:00,
2013-08-10 10:32:00,79.4,62.2,29.90,SSW,212,4.2,5.0,56,0.00,,SCT250,0.00,VWS V14.01,2013-08-10 14:32:00,
2013-08-10 10:38:00,79.9,64.8,29.90,North,350,4.0,4.4,60,0.00,,SCT250,0.00,VWS V14.01,2013-08-10 14:38:00,
2013-08-10 10:44:00,79.3,66.4,29.90,NNW,347,3.1,6.0,65,0.00,,SCT250,0.00,VWS V14.01,2013-08-10 14:44:00,
2013-08-10 10:50:00,79.3,65.5,29.90,NE,34,5.5,8.6,63,0.00,,SCT250,0.00,VWS V14.01,2013-08-10 14:50:00,
2013-08-10 10:56:00,79.4,63.5,29.90,NE,52,5.2,8.5,58,0.00,,SCT250,0.00,VWS V14.01,2013-08-10 14:56:00,
2013-08-10 11:02:00,79.8,63.4,29.90,WNW,290,4.1,7.8,57,0.00,,SCT250,0.00,VWS V14.01,2013-08-10 15:02:00,
2013-08-10 11:08:00,80.6,59.5,29.90,WSW,243,3.8,5.2,49,0.00,,SCT250,0.00,VWS V14.01,2013-08-10 15:08:00,
2013-08-10 11:14:00,80.5,63.3,29.90,ESE,121,3.9,7.8,56,0.00,,SCT250,0.00,VWS V14.01,2013-08-10 15:14:00,
2013-08-10 11:20:00,81.0,59.4,29.90,SSW,212,3.1,8.0,48,0.00,,SCT250,0.00,VWS V14.01,2013-08-10 15:20:00,
2013-08-10 11:26:00,81.1,59.2,29.90,WSW,257,2.5,6.5,47,0.00,,SCT250,0.00,VWS V14.01,2013-08-10 15:26:00,
2013-08-10 11:32:00,80.3,62.3,29.89,West,263,3.7,11.2,54,0.00,,SCT250,0.00,VWS V14.01,2013-08-10 15:32:00,
2013-08-10 11:38:00,81.3,62.3,29.89,NNE,18,4.0,5.4,52,0.00,,SCT250,0.00,VWS V14.01,2013-08-10 15:38:00,
2013-08-10 11:44:00,81.4,59.5,29.89,WNW,288,4.1,6.7,47,0.00,,SCT250,0.00,VWS V14.01,2013-08-10 15:44:00,
2013-08-10 11:50:00,81.2,64.4,29.89,WSW,238,3.0,5.4,57,0.00,,SCT250,0.00,VWS V14.01,2013-08-10 15:50:00,
2013-08-10 11:56:00,82.3,61.1,29.89,North,4,3.7,7.3,49,0.00,,SCT250,0.00,VWS V14.01,2013-08-10 15:56:00,
2013-08-10 12:02:00,82.4,60.0,29.89,WNW,292,4.4,8.7,47,0.00,,SCT220,0.00,VWS V14.01,2013-08-10 16:02:00,
2013-08-10 12:08:00,82.8,61.6,29.89,NNW,332,2.5,8.4,49,0.00,,SCT220,0.00,VWS V14.01,2013-08-10 16:08:00,
2013-08-10 12:14:00,82.1,61.9,29.89,WNW,294,3.5,8.3,50,0.00,,SCT220,0.00,VWS V14.01,2013-08-10 16:14:00,
2013-08-10 12:20:00,82.4,57.5,29.89,SSW,204,4.2,8.2,43,0.00,,SCT220,0.00,VWS V14.01,2013-08-10 16:20:00,
2013-08-10 12:26:00,82.9,62.1,29.89,SSE,149,2.5,11.3,50,0.00,,SCT220,0.00,VWS V14.01,2013-08-10 16:26:00,
2013-08-10 12:32:00,82.5,60.2,29.89,WNW,283,4.3,7.4,47,0.00,,SCT220,0.00,VWS V14.01,2013-08-10 16:32:00,
2013-08-10 12:38:00,82.9,58.3,29.89,NW,315,2.5,7.3,43,0.00,,SCT220,0.00,VWS V14.01,2013-08-10 16:38:00,
2013-08-10 12:44:00,82.8,57.0,29.89,SW,215,4.0,6.4,42,0.00,,SCT220,0.00,VWS V14.01,2013-08-10 16:44:00,
2013-08-10 12:50:00,82.0,58.8,29.89,NNE,32,8.2,12.3,45,0.00,,SCT220,0.00,VWS V14.01,2013-08-10 16:50:00,
2013-08-10 12:56:00,83.2,57.6,29.89,NE,56,3.7,7.6,42,0.00,,SCT220,0.00,VWS V14.01,2013-08-10 16:56:00,
2013-08-10 13:02:00,83.5,56.4,29.89,WNW,287,6.5,6.7,40,0.00,,SCT220,0.00,VWS V14.01,2013-08-10 17:02:00,
2013-08-10 13:08:00,82.0,55.9,29.89,WSW,256,6.9,11.7,41,0.00,,SCT220,0.00,VWS V14.01,2013-08-10 17:08:00,
2013-08-10 13:14:00,82.9,56.8,29.89,NE,48,3.7,6.4,41,0.00,,SCT220,0.00,VWS V14.01,2013-08-10 17:14:00,
2013-08-10 13:20:00,83.5,58.9,29.89,WSW,239,2.5,7.1,43,0.00,,SCT220,0.00,VWS V14.01,2013-08-10 17:20:00,
2013-08-10 13:26:00,85.3,58.2,29.89,North,4,5.7,5.7,40,0.00,,SCT220,0.00,VWS V14.01,2013-08-10 17:26:00,
2013-08-10 13:32:00,84.5,59.2,29.89,West,280,2.5,4.2,42,0.00,,SCT220,0.00,VWS V14.01,2013-08-10 17:32:00,
2013-08-10 13:38:00,84.8,55.7,29.89,WSW,250,4.6,7.3,37,0.00,,SCT220,0.00,VWS V14.01,2013-08-10 17:38:00,
2013-08-10 13:44:00,82.5,59.0,29.89,WSW,242,6.0,9.1,45,0.00,,SCT220,0.00,VWS V14.01,2013-08-10 17:44:00,
2013-08-10 13:50:00,83.6,57.2,29.89,South,190,6.7,6.7,41,0.00,,SCT220,0.00,VWS V14.01,2013-08-10 17:50:00,
2013-08-10 13:56:00,83.1,59.2,29.89,WNW,297,3.9,7.3,44,0.00,,SCT220,0.00,VWS V14.01,2013-08-10 17:56:00,
2013-08-10 14:02:00,83.6,54.6,29.89,SW,232,6.0,8.7,37,0.00,,SCT250,0.00,VWS V14.01,2013-08-10 18:02:00,
2013-08-10 14:08:00,84.1,57.5,29.89,North,354,7.6,9.0,40,0.00,,SCT250,0.00,VWS V14.01,2013-08-10 18:08:00,
2013-08-10 14:14:00,85.7,57.3,29.89,WSW,249,5.9,9.6,38,0.00,,SCT250,0.00,VWS V14.01,2013-08-10 18:14:00,
2013-08-10 14:20:00,82.5,52.1,29.89,WSW,239,7.2,10.9,35,0.00,,SCT250,0.00,VWS V14.01,2013-08-10 18:20:00,
2013-08-10 14:26:00,85.3,53.4,29.89,WSW,243,4.8,9.1,34,0.00,,SCT250,0.00,VWS V14.01,2013-08-10 18:26:00,
2013-08-10 14:32:00,84.6,54.6,29.89,WSW,238,6.4,8.8,36,0.00,,SCT250,0.00,VWS V14.01,2013-08-10 18:32:00,
2013-08-10 14:38:00,83.4,53.8,29.89,WSW,257,7.7,8.8,36,0.00,,SCT250,0.00,VWS V14.01,2013-08-10 18:38:00,
2013-08-10 14:44:00,81.4,52.5,29.89,WNW,291,6.4,7.7,37,0.00,,SCT250,0.00,VWS V14.01,2013-08-10 18:44:00,
2013-08-10 14:50:00,79.7,56.4,29.89,West,277,4.2,4.5,45,0.00,,SCT250,0.00,VWS V14.01,2013-08-10 18:50:00,
2013-08-10 14:56:00,79.0,57.9,29.89,ENE,70,4.1,7.9,48,0.00,,SCT250,0.00,VWS V14.01,2013-08-10 18:56:00,
2013-08-10 15:02:00,79.7,58.8,29.89,West,271,5.7,5.7,49,0.00,,BKN250,0.00,VWS V14.01,2013-08-10 19:02:00,
2013-08-10 15:08:00,80.2,56.5,29.89,ENE,58,2.5,9.1,44,0.00,,BKN250,0.00,VWS V14.01,2013-08-10 19:08:00,
2013-08-10 15:14:00,80.5,59.8,29.89,SW,229,5.8,8.7,49,0.00,,BKN250,0.00,VWS V14.01,2013-08-10 19:14:00,
2013-08-10 15:20:00,80.0,60.7,29.89,WSW,239,3.8,8.3,52,0.00,,BKN250,0.00,VWS V14.01,2013-08-10 19:20:00,
2013-08-10 15:26:00,80.4,56.8,29.90,NW,312,5.0,10.4,44,0.00,,BKN250,0.00,VWS V14.01,2013-08-10 19:26:00,
2013-08-10 15:32:00,80.5,55.0,29.89,South,172,4.8,8.4,42,0.00,,BKN250,0.00,VWS V14.01,2013-08-10 19:32:00,
2013-08-10 15:38:00,81.5,55.8,29.89,NW,307,3.1,5.8,41,0.00,,BKN250,0.00,VWS V14.01,2013-08-10 19:38:00,
2013-08-10 15:44:00,81.4,57.2,29.89,West,264,3.7,5.2,44,0.00,,BKN250,0.00,VWS V14.01,2013-08-10 19:44:00,
2013-08-10 15:50:00,80.5,55.8,29.89,NNE,28,6.7,7.9,43,0.00,,BKN250,0.00,VWS V14.01,2013-08-10 19:50:00,
2013-08-10 15:56:00,80.2,56.6,29.89,WSW,248,3.5,7.3,44,0.00,,BKN250,0.00,VWS V14.01,2013-08-10 19:56:00,
2013-08-10 16:02:00,79.3,54.3,29.89,NW,325,7.6,10.1,42,0.00,,BKN250,0.00,VWS V14.01,2013-08-10 20:02:00,
2013-08-10 16:08:00,79.9,55.4,29.89,WNW,292,4.0,8.2,43,0.00,,BKN250,0.00,VWS V14.01,2013-08-10 20:08:00,
2013-08-10 16:14:00,79.2,56.3,29.90,WSW,243,2.5,6.5,46,0.00,,BKN250,0.00,VWS V14.01,2013-08-10 20:14:00,
2013-08-10 16:20:00,79.8,59.7,29.90,SW,233,3.9,7.3,50,0.00,,BKN250,0.00,VWS V14.01,2013-08-10 20:20:00,
2013-08-10 16:26:00,79.6,56.8,29.90,NNE,13,2.5,6.0,46,0.00,,BKN250,0.00,VWS V14.01,2013-08-10 20:26:00,
2013-08-10 16:32:00,79.9,57.2,29.90,WSW,240,3.6,5.0,46,0.00,,BKN250,0.00,VWS V14.01,2013-08-10 20:32:00,
2013-08-10 16:38:00,79.8,55.7,29.90,South,188,3.4,9.0,44,0.00,,BKN250,0.00,VWS V14.01,2013-08-10 20:38:00,
2013-08-10 16:44:00,79.0,57.5,29.90,WNW,291,4.4,5.1,48,0.00,,BKN250,0.00,VWS V14.01,2013-08-10 20:44:00,
2013-08-10 16:50:00,78.7,62.2,29.90,WSW,242,2.5,5.0,57,0.00,,BKN250,0.00,VWS V14.01,2013-08-10 20:50:00,
2013-08-10 16:56:00,79.9,59.8,29.90,SW,229,4.6,5.2,50,0.00,,BKN250,0.00,VWS V14.01,2013-08-10 20:56:00,
2013-08-10 17:02:00,81.5,56.9,29.90,WSW,253,5.4,9.0,43,0.00,,SCT250,0.00,VWS V14.01,2013-08-10 21:02:00,
2013-08-10 17:08:00,79.2,58.0,29.90,SW,218,5.0,8.3,48,0.00,,SCT250,0.00,VWS V14.01,2013-08-10 21:08:00,
2013-08-10 17:14:00,80.3,62.2,29.91,NNW,332,5.4,7.3,54,0.00,,SCT250,0.00,VWS V14.01,2013-08-10 21:14:00,
2013-08-10 17:20:00,81.4,59.1,29.90,ENE,69,3.4,4.2,47,0.00,,SCT250,0.00,VWS V14.01,2013-08-10 21:20:00,
2013-08-10 17:26:00,80.4,61.8,29.90,West,260,6.2,8.1,53,0.00,,SCT250,0.00,VWS V14.01,2013-08-10 21:26:00,
2013-08-10 17:32:00,79.0,58.8,29.91,SSE,162,3.6,6.3,50,0.00,,SCT250,0.00,VWS V14.01,2013-08-10 21:32:00,
2013-08-10 17:38:00,79.0,58.9,29.91,East,91,2.5,4.6,50,0.00,,SCT250,0.00,VWS V14.01,2013-08-10 21:38:00,
2013-08-10 17:44:00,79.1,59.0,29.91,SSW,212,2.5,3.5,50,0.00,,SCT250,0.00,VWS V14.01,2013-08-10 21:44:00,
2013-08-10 17:50:00,78.8,55.7,29.91,SW,233,2.9,2.9,45,0.00,,SCT250,0.00,VWS V14.01,2013-08-10 21:50:00,
2013-08-10 17:56:00,77.8,58.2,29.91,West,277,2.5,3.9,51,0.00,,SCT250,0.00,VWS V14.01,2013-08-10 21:56:00,
2013-08-10 18:02:00,77.5,60.9,29.91,SW,235,2.5,2.5,57,0.00,,SCT250,0.00,VWS V14.01,2013-08-10 22:02:00,
2013-08-10 18:08:00,76.9,57.4,29.91,SW,235,2.5,4.7,51,0.00,,SCT250,0.00,VWS V14.01,2013-08-10 22:08:00,
2013-08-10 18:14:00,76.7,59.6,29.91,West,277,4.5,5.5,56,0.00,,SCT250,0.00,VWS V14.01,2013-08-10 22:14:00,
2013-08-10 18:20:00,77.5,56.2,29.91,WSW,249,3.4,8.2,48,0.00,,SCT250,0.00,VWS V14.01,2013-08-10 22:20:00,
2013-08-10 18:26:00,77.0,57.7,29.92,WSW,242,3.2,3.3,51,0.00,,SCT250,0.00,VWS V14.01,2013-08-10 22:26:00,
2013-08-10 18:32:00,77.4,56.2,29.92,WNW,285,4.1,5.0,48,0.00,,SCT250,0.00,VWS V14.01,2013-08-10 22:32:00,
2013-08-10 18:38:00,76.7,53.7,29.92,WSW,250,3.9,4.9,45,0.00,,SCT250,0.00,VWS V14.01,2013-08-10 22:38:00,
2013-08-10 18:44:00,75.9,55.4,29.92,WNW,285,2.5,5.2,49,0.00,,SCT250,0.00,VWS V14.01,2013-08-10 22:44:00,
2013-08-10 18:50:00,76.0,54.0,29.92,SW,236,3.6,5.2,46,0.00,,SCT250,0.00,VWS V14.01,2013-08-10 22:50:00,
2013-08-10 18:56:00,75.3,57.8,29.93,South,181,2.5,3.3,54,0.00,,SCT250,0.00,VWS V14.01,2013-08-10 22:56:00,
2013-08-10 19:02:00,74.5,57.9,29.93,South,184,2.5,4.2,56,0.00,,SCT250,0.00,VWS V14.01,2013-08-10 23:02:00,
2013-08-10 19:08:00,73.8,58.8,29.93,South,184,2.5,2.5,60,0.00,,SCT250,0.00,VWS V14.01,2013-08-10 23:08:00,
2013-08-10 19:14:00,73.9,57.7,29.93,SSW,211,2.5,3.1,57,0.00,,SCT250,0.00,VWS V14.01,2013-08-10 23:14:00,
2013-08-10 19:20:00,73.9,54.7,29.93,West,260,2.5,3.8,51,0.00,,SCT250,0.00,VWS V14.01,2013-08-10 23:20:00,
2013-08-10 19:26:00,73.0,60.2,29.93,West,260,2.5,2.5,64,0.00,,SCT250,0.00,VWS V14.01,2013-08-10 23:26:00,
2013-08-10 19:32:00,72.5,57.0,29.94,NE,52,2.5,3.6,58,0.00,,SCT250,0.00,VWS V14.01,2013-08-10 23:32:00,
2013-08-10 19:38:00,72.3,59.2,29.94,NE,52,2.5,2.5,63,0.00,,SCT250,0.00,VWS V14.01,2013-08-10 23:38:00,
2013-08-10 19:44:00,72.0,55.8,29.94,NE,52,2.5,2.5,57,0.00,,SCT250,0.00,VWS V14.01,2013-08-10 23:44:00,
2013-08-10 19:50:00,71.8,55.6,29.94,NE,52,2.5,2.5,57,0.00,,SCT250,0.00,VWS V14.01,2013-08-10 23:50:00,
2013-08-10 19:56:00,71.2,56.9,29.95,NE,52,2.5,2.5,61,0.00,,SCT250,0.00,VWS V14.01,2013-08-10 23:56:00,
2013-08-10 20:02:00,71.0,58.6,29.95,West,264,2.7,2.7,65,0.00,,SCT280,0.00,VWS V14.01,2013-08-11 00:02:00,
2013-08-10 20:08:00,70.4,60.3,29.95,West,264,2.5,2.5,70,0.00,,SCT280,0.00,VWS V14.01,2013-08-11 00:08:00,
2013-08-10 20:14:00,70.2,58.5,29.95,SW,231,2.5,4.7,66,0.00,,SCT280,0.00,VWS V14.01,2013-08-11 00:14:00,
2013-08-10 20:20:00,69.8,58.2,29.95,WNW,290,2.5,3.8,66,0.00,,SCT280,0.00,VWS V14.01,2013-08-11 00:20:00,
2013-08-10 20:26:00,69.6,57.2,29.96,WNW,290,2.5,2.5,65,0.00,,SCT280,0.00,VWS V14.01,2013-08-11 00:26:00,
2013-08-10 20:32:00,69.6,55.9,29.96,WNW,290,2.5,2.5,62,0.00,,SCT280,0.00,VWS V14.01,2013-08-11 00:32:00,
2013-08-10 20:38:00,69.3,57.4,29.97,WNW,290,2.5,2.5,66,0.00,,SCT280,0.00,VWS V14.01,2013-08-11 00:38:00,
2013-08-10 20:44:00,69.2,55.6,29.96,WNW,290,2.5,2.5,62,0.00,,SCT280,0.00,VWS V14.01,2013-08-11 00:44:00,
2013-08-10 20:50:00,68.8,55.8,29.97,WNW,290,2.5,2.5,63,0.00,,SCT280,0.00,VWS V14.01,2013-08-11 00:50:00,
2013-08-10 20:56:00,68.4,58.3,29.97,West,266,2.5,2.5,70,0.00,,SCT280,0.00,VWS V14.01,2013-08-11 00:56:00,
2013-08-10 21:02:00,68.3,56.2,29.97,West,266,2.5,2.5,65,0.00,,FEW280,0.00,VWS V14.01,2013-08-11 01:02:00,
2013-08-10 21:08:00,68.2,56.5,29.97,West,266,2.5,2.5,66,0.00,,FEW280,0.00,VWS V14.01,2013-08-11 01:08:00,
2013-08-10 21:14:00,67.8,57.1,29.98,West,266,2.5,2.5,69,0.00,,FEW280,0.00,VWS V14.01,2013-08-11 01:14:00,
2013-08-10 21:20:00,67.5,56.9,29.98,West,266,2.5,2.5,69,0.00,,FEW280,0.00,VWS V14.01,2013-08-11 01:20:00,
2013-08-10 21:26:00,67.7,56.6,29.98,West,266,2.5,2.5,68,0.00,,FEW280,0.00,VWS V14.01,2013-08-11 01:26:00,
2013-08-10 21:32:00,67.8,58.4,29.99,West,266,2.5,2.5,72,0.00,,FEW280,0.00,VWS V14.01,2013-08-11 01:32:00,
2013-08-10 21:38:00,67.1,56.9,29.99,West,266,2.5,2.5,70,0.00,,FEW280,0.00,VWS V14.01,2013-08-11 01:38:00,
2013-08-10 21:44:00,66.8,58.3,29.99,West,266,2.5,2.5,74,0.00,,FEW280,0.00,VWS V14.01,2013-08-11 01:44:00,
2013-08-10 21:50:00,66.7,56.9,29.99,West,266,2.5,2.5,71,0.00,,FEW280,0.00,VWS V14.01,2013-08-11 01:50:00,
2013-08-10 21:56:00,66.7,57.5,29.99,West,266,2.5,2.5,72,0.00,,FEW280,0.00,VWS V14.01,2013-08-11 01:56:00,
2013-08-10 22:02:00,66.7,56.8,29.99,West,266,2.5,2.5,70,0.00,,CLR,0.00,VWS V14.01,2013-08-11 02:02:00,
2013-08-10 22:08:00,66.4,57.9,29.99,West,266,2.5,2.5,74,0.00,,CLR,0.00,VWS V14.01,2013-08-11 02:08:00,
2013-08-10 22:14:00,66.0,59.2,29.99,West,266,2.5,2.5,79,0.00,,CLR,0.00,VWS V14.01,2013-08-11 02:14:00,
2013-08-10 22:20:00,65.9,57.8,29.99,West,266,2.5,2.5,75,0.00,,CLR,0.00,VWS V14.01,2013-08-11 02:20:00,
2013-08-10 22:26:00,66.0,57.2,30.00,West,266,2.5,2.5,73,0.00,,CLR,0.00,VWS V14.01,2013-08-11 02:26:00,
2013-08-10 22:32:00,65.7,57.1,29.99,West,266,2.5,2.5,74,0.00,,CLR,0.00,VWS V14.01,2013-08-11 02:32:00,
2013-08-10 22:38:00,65.3,58.4,29.99,West,266,2.5,2.5,78,0.00,,CLR,0.00,VWS V14.01,2013-08-11 02:38:00,
2013-08-10 22:44:00,65.0,60.2,30.00,West,266,2.5,2.5,84,0.00,,CLR,0.00,VWS V14.01,2013-08-11 02:44:00,
2013-08-10 22:50:00,65.1,58.7,29.99,West,266,2.5,2.5,80,0.00,,CLR,0.00,VWS V14.01,2013-08-11 02:50:00,
2013-08-10 22:58:00,65.1,57.2,30.00,West,266,2.5,2.5,76,0.00,,CLR,0.00,VWS V14.01,2013-08-11 02:58:00,
2013-08-10 23:04:00,64.9,57.7,30.00,SW,231,2.5,2.5,77,0.00,,CLR,0.00,VWS V14.01,2013-08-11 03:04:00,
2013-08-10 23:12:00,64.8,57.8,30.00,SW,231,2.5,2.5,78,0.00,,CLR,0.00,VWS V14.01,2013-08-11 03:12:00,
2013-08-10 23:18:00,64.7,58.7,30.00,SW,231,2.5,2.5,81,0.00,,CLR,0.00,VWS V14.01,2013-08-11 03:18:00,
2013-08-10 23:24:00,64.6,59.3,30.00,SW,231,2.5,2.5,83,0.00,,CLR,0.00,VWS V14.01,2013-08-11 03:24:00,
2013-08-10 23:30:00,64.0,59.6,30.01,SW,231,5.3,5.7,86,0.00,,CLR,0.00,VWS V14.01,2013-08-11 03:30:00,
2013-08-10 23:36:00,63.9,59.6,30.01,SW,218,2.5,2.5,86,0.00,,CLR,0.00,VWS V14.01,2013-08-11 03:36:00,
2013-08-10 23:42:00,63.9,58.5,30.01,SW,218,2.5,2.5,82,0.00,,CLR,0.00,VWS V14.01,2013-08-11 03:42:00,
2013-08-10 23:50:00,63.8,57.9,30.01,SW,218,2.5,2.5,81,0.00,,CLR,0.00,VWS V14.01,2013-08-11 03:50:00,